Showing default

HULIANWANG DIGUI-162, 68136

Orbit data source: Space-Track

HULIANWANG DIGUI-162, 68136 is a payload satellite owned by Zhongguo Xingwang (CN) in LEO that was launched on Thu, 12 Mar 2026 UTC via a CHANG ZHENG 8A launch vehicle from the Wenchang Satellite Launch Center (WSC). Payload-class satellites include a variety of spacecraft equipped with specific instruments for various scientific and technological missions. These include communications satellites like Starlink; space stations such as the ISS; scientific satellites like the Hubble; Earth observation satellites from companies like Planet Labs, Umbra, and HawkEye 360; GPS; miniature CubeSats for education and research; and military/defense satellites.

Loading next visibility...
Identifier
68136, 2026-047H
Orbit
LEO
Country
Flag of CNCN / PRC
Related business
Manufacturer
CAST?
Mission
Operational spacecraft
Bus & Motor
XINGWANG C, Unknown motor
Mass
~700 kg wet, ~700 kg dry
Launch date (UTC)
2026-03-12 (2 months ago)
Launch vehicle
CHANG ZHENG 8A
Launch site
Wenchang Satellite Launch Center (WSC)
Object type
Payload
Rocket body
Debris
Shape & HBR
Unknown shape, 1.1 m
Radar Cross Section
RCS unknown

Expand to show TLE details & history
Last TLE update: 22 hours ago

TLE from 22 hours ago
0 HULIANWANG DIGUI-162
1 68136U 26047H   26118.68363181 -.00000123  00000-0  11522-4 0  9999
2 68136  50.0054 233.9123 0000797  28.7707 331.3216 13.44685439  6470
Epoch: 2026-04-28T16:24Z
TLE epoch observation values (Epoch: 2026-04-28T16:24:25.788Z)
Latitude
0.00001°
Longitude
131.14944°
Altitude
1,091.864 km
Speed
7.308 km/s
True Right ascension
15h 35m 38s
True Declination
0° 00' 00"
Sunlit
Object was in full shadow at epoch
Visualization orbit readout
Latitude
Unknown
Longitude
Unknown
Altitude
Unknown
Speed
Unknown
Apparent Right ascension
Unknown
Apparent Declination
Unknown
Sunlit
N/A
Visualization observer readout
Local Sidereal Time
21:32:16
Azimuth
Unknown
Elevation
Unknown
Doppler factor
Unknown
Orbital elements
Apogee altitude
1,093.182 km
Perigee altitude
1,091.991 km
Semi-major axis
7,470.723 km
Eccentricity
0.00008
Inclination
50.0054°
RAAN
233.9123°
Arg. of periapsis
28.7707°
True anomaly
331.31722°
Mean anomaly
331.3216°
Eccentric anomaly
331.31941°
Mean motion
3.36124 °/min
Orbital period
107.1 mins
BSTAR
0.000011522
Loading maneuver chart data...
Computing Atmospheric mass density...
Loading historical data...
Loading historical data...
Loading historical data...
Loading historical data...
Loading historical data...
Loading historical data...
Loading historical data...

Documentation

Showing up to 5 results
|